MISRSAT-2

导读

MISRSAT-2(埃及二号卫星)是埃及与中国联合研制的低轨光学遥感卫星,于2023年12月4日发射升空,是中埃共建“一带一路”的标志性航天合作成果。卫星数据可服务埃及农业、灾害监测、城市规划等领域,项目帮助埃及建成非洲首个完备卫星总装集成测试能力,推动了埃及及非洲航天技术发展,延续了两个文明古国的航天合作情谊。

基本信息
目录编号:
58497
目录名称:
MISRSAT-2
国际标识:
2023-187B
轨道中心:
EARTH
卫星名称:
MISRSAT-2
卫星全名:
--
卫星状态:
在轨 (已飞行953 天)
发射日期:
2023-12-04 UTC
国别 :
埃及 (EG)
星等 :
--
轨道信息
数据来源 国际轨道数据 AOE轨道数据
星历时间 2026-07-13T21:40:45+0800
14小时前
查看轨道信息
2026-07-13T01:00:00+0800
1天前
查看轨道信息
半长轴 6997.05km 6997.058km
偏心率 0.0012179 0.0012309
轨道倾角 97.927° 97.926°
近地点辐角 65.100° 69.027°
升交点赤经 276.296° 275.440°
平近点角 295.148° 12.989°
近地点 610.391km 610.308km
远地点 627.435km 627.534km
周期 97.081分钟 97.081分钟
每日圈数 14.833046 14.833021
详细信息
使用方式:
暂无
2D轨道图
3D轨道图
轨道高度分析图
轨道倾角分析图
轨道综合分析图
查看轨道综合分析图